Location: Peterborough
(44.3091°N, 78.3197°W)
Time: 05:45:50
(UTC-04:00)

A-11 Canister half - Pass Details

Date: 30 March 2023
Orbit: 1513 x 1686 km, 47.2° (Epoch: 04 June)

Event Time Altitude Azimuth Distance (km) Brightness Sun altitude
Exits shadow 05:55:58 14° 252° (WSW) 3,623 10.3 -11.8°
Maximum altitude 05:58:14 15° 237° (WSW) 3,533 10.3 -11.4°
Drops below altitude 10° 06:03:20 10° 206° (SSW) 3,922 10.7 -10.5°
Sets 06:08:19 0° 186° (S) 4,882 11.4 -9.7°
